Time,TemperatureF,DewpointF,PressureIn,WindDirection,WindDirectionDegrees,WindSpeedMPH,WindSpeedGustMPH,Humidity,HourlyPrecipIn,Conditions,Clouds,dailyrainin,SoftwareType,DateUTC
2013-11-26 00:01:00,27.1,15.5,30.32,WSW,240,1.0,2.0,61,0.00,,,0.00,WeatherCatV1.15B25,2013-11-26 05:01:00,
2013-11-26 00:02:00,27.1,15.5,30.32,WSW,240,2.0,3.0,61,0.00,,,0.00,WeatherCatV1.15B25,2013-11-26 05:02:00,
2013-11-26 00:07:00,27.1,15.1,30.33,SSW,211,4.0,5.0,60,0.00,,,0.00,WeatherCatV1.15B25,2013-11-26 05:07:00,
2013-11-26 00:12:00,27.1,15.5,30.33,West,263,2.0,5.0,61,0.00,,,0.00,WeatherCatV1.15B25,2013-11-26 05:12:00,
2013-11-26 00:17:00,27.1,15.5,30.33,SSW,196,0.0,3.0,61,0.00,,,0.00,WeatherCatV1.15B25,2013-11-26 05:17:00,
2013-11-26 00:22:00,27.1,15.5,30.32,WSW,237,2.0,3.0,61,0.00,,,0.00,WeatherCatV1.15B25,2013-11-26 05:22:00,
2013-11-26 00:27:00,27.2,15.6,30.31,SSW,196,2.0,4.0,61,0.00,,,0.00,WeatherCatV1.15B25,2013-11-26 05:27:00,
2013-11-26 00:32:00,27.1,15.5,30.31,SW,215,0.0,6.0,61,0.00,,,0.00,WeatherCatV1.15B25,2013-11-26 05:32:00,
2013-11-26 00:37:00,27.1,15.5,30.31,SSW,212,0.0,7.0,61,0.00,,,0.00,WeatherCatV1.15B25,2013-11-26 05:37:00,
2013-11-26 00:42:00,27.1,15.5,30.31,SW,214,0.0,4.0,61,0.00,,,0.00,WeatherCatV1.15B25,2013-11-26 05:42:00,
2013-11-26 00:47:00,27.1,15.8,30.32,SSW,211,0.0,4.0,62,0.00,,,0.00,WeatherCatV1.15B25,2013-11-26 05:47:00,
2013-11-26 00:52:00,27.0,15.7,30.32,SW,222,3.0,7.0,62,0.00,,,0.00,WeatherCatV1.15B25,2013-11-26 05:52:00,
2013-11-26 00:57:00,27.0,15.7,30.32,WSW,244,1.0,3.0,62,0.00,,,0.00,WeatherCatV1.15B25,2013-11-26 05:57:00,
2013-11-26 01:02:00,27.0,16.1,30.32,West,271,0.0,2.0,63,0.00,,,0.00,WeatherCatV1.15B25,2013-11-26 06:02:00,
2013-11-26 01:07:00,26.9,16.0,30.32,WSW,258,1.0,3.0,63,0.00,,,0.00,WeatherCatV1.15B25,2013-11-26 06:07:00,
2013-11-26 01:12:00,26.9,16.0,30.32,SSE,155,0.0,3.0,63,0.00,,,0.00,WeatherCatV1.15B25,2013-11-26 06:12:00,
2013-11-26 01:17:00,26.8,15.9,30.32,SW,227,0.0,3.0,63,0.00,,,0.00,WeatherCatV1.15B25,2013-11-26 06:17:00,
2013-11-26 01:22:00,26.8,16.3,30.33,SW,227,1.0,1.0,64,0.00,,,0.00,WeatherCatV1.15B25,2013-11-26 06:22:00,
2013-11-26 01:27:00,26.7,16.2,30.33,West,268,1.0,2.0,64,0.00,,,0.00,WeatherCatV1.15B25,2013-11-26 06:27:00,
2013-11-26 01:32:00,26.7,16.2,30.32,West,267,0.0,0.0,64,0.00,,,0.00,WeatherCatV1.15B25,2013-11-26 06:32:00,
2013-11-26 01:37:00,26.7,16.2,30.32,West,278,0.0,4.0,64,0.00,,,0.00,WeatherCatV1.15B25,2013-11-26 06:37:00,
2013-11-26 01:42:00,26.7,16.2,30.32,NW,304,0.0,1.0,64,0.00,,,0.00,WeatherCatV1.15B25,2013-11-26 06:42:00,
2013-11-26 01:47:00,26.9,16.4,30.32,NW,319,2.0,3.0,64,0.00,,,0.00,WeatherCatV1.15B25,2013-11-26 06:47:00,
2013-11-26 01:52:00,26.9,16.4,30.32,NW,306,0.0,1.0,64,0.00,,,0.00,WeatherCatV1.15B25,2013-11-26 06:52:00,
2013-11-26 01:57:00,27.1,16.2,30.32,West,264,1.0,4.0,63,0.00,,,0.00,WeatherCatV1.15B25,2013-11-26 06:57:00,
2013-11-26 02:02:00,27.2,16.3,30.32,SW,214,0.0,4.0,63,0.00,,,0.00,WeatherCatV1.15B25,2013-11-26 07:02:00,
2013-11-26 02:07:00,27.3,16.4,30.31,SW,215,0.0,1.0,63,0.00,,,0.00,WeatherCatV1.15B25,2013-11-26 07:07:00,
2013-11-26 02:12:00,27.4,16.5,30.31,SW,234,2.0,3.0,63,0.00,,,0.00,WeatherCatV1.15B25,2013-11-26 07:12:00,
2013-11-26 02:17:00,27.5,16.6,30.30,SSW,205,0.0,4.0,63,0.00,,,0.00,WeatherCatV1.15B25,2013-11-26 07:17:00,
2013-11-26 02:22:00,27.5,16.6,30.30,SW,224,0.0,2.0,63,0.00,,,0.00,WeatherCatV1.15B25,2013-11-26 07:22:00,
2013-11-26 02:27:00,27.6,16.7,30.31,SW,235,0.0,2.0,63,0.00,,,0.00,WeatherCatV1.15B25,2013-11-26 07:27:00,
2013-11-26 02:32:00,27.6,16.7,30.31,WNW,294,0.0,1.0,63,0.00,,,0.00,WeatherCatV1.15B25,2013-11-26 07:32:00,
2013-11-26 02:37:00,27.6,16.7,30.30,WSW,252,2.0,2.0,63,0.00,,,0.00,WeatherCatV1.15B25,2013-11-26 07:37:00,
2013-11-26 02:42:00,27.7,16.8,30.30,WNW,295,1.0,4.0,63,0.00,,,0.00,WeatherCatV1.15B25,2013-11-26 07:42:00,
2013-11-26 02:47:00,27.7,16.8,30.30,West,277,4.0,4.0,63,0.00,,,0.00,WeatherCatV1.15B25,2013-11-26 07:47:00,
2013-11-26 02:52:00,27.7,16.8,30.30,SW,227,0.0,3.0,63,0.00,,,0.00,WeatherCatV1.15B25,2013-11-26 07:52:00,
2013-11-26 02:57:00,27.6,16.3,30.30,SW,227,0.0,2.0,62,0.00,,,0.00,WeatherCatV1.15B25,2013-11-26 07:57:00,
2013-11-26 03:02:00,27.6,16.7,30.30,SW,227,0.0,3.0,63,0.00,,,0.00,WeatherCatV1.15B25,2013-11-26 08:02:00,
2013-11-26 03:07:00,27.5,16.2,30.30,South,186,3.0,3.0,62,0.00,,,0.00,WeatherCatV1.15B25,2013-11-26 08:07:00,
2013-11-26 03:12:00,27.5,16.6,30.30,WSW,249,3.0,3.0,63,0.00,,,0.00,WeatherCatV1.15B25,2013-11-26 08:12:00,
2013-11-26 03:17:00,27.5,16.6,30.30,West,263,0.0,1.0,63,0.00,,,0.00,WeatherCatV1.15B25,2013-11-26 08:17:00,
2013-11-26 03:22:00,27.5,16.6,30.29,SW,221,0.0,2.0,63,0.00,,,0.00,WeatherCatV1.15B25,2013-11-26 08:22:00,
2013-11-26 03:27:00,27.5,16.6,30.29,WSW,244,0.0,2.0,63,0.00,,,0.00,WeatherCatV1.15B25,2013-11-26 08:27:00,
2013-11-26 03:32:00,27.5,16.6,30.28,WSW,237,1.0,5.0,63,0.00,,,0.00,WeatherCatV1.15B25,2013-11-26 08:32:00,
2013-11-26 03:37:00,27.6,16.7,30.28,SSW,213,2.0,2.0,63,0.00,,,0.00,WeatherCatV1.15B25,2013-11-26 08:37:00,
2013-11-26 03:42:00,27.6,16.7,30.28,SSW,213,0.0,1.0,63,0.00,,,0.00,WeatherCatV1.15B25,2013-11-26 08:42:00,
2013-11-26 03:47:00,27.6,16.7,30.28,SSW,213,0.0,3.0,63,0.00,,,0.00,WeatherCatV1.15B25,2013-11-26 08:47:00,
2013-11-26 03:52:00,27.7,16.8,30.29,SSW,198,1.0,2.0,63,0.00,,,0.00,WeatherCatV1.15B25,2013-11-26 08:52:00,
2013-11-26 03:57:00,27.7,16.4,30.28,SSW,198,0.0,2.0,62,0.00,,,0.00,WeatherCatV1.15B25,2013-11-26 08:57:00,
2013-11-26 04:02:00,27.7,16.8,30.28,SSW,200,2.0,3.0,63,0.00,,,0.00,WeatherCatV1.15B25,2013-11-26 09:02:00,
2013-11-26 04:07:00,27.7,16.8,30.29,WSW,238,4.0,7.0,63,0.00,,,0.00,WeatherCatV1.15B25,2013-11-26 09:07:00,
2013-11-26 04:12:00,27.6,17.0,30.28,South,188,3.0,4.0,64,0.00,,,0.00,WeatherCatV1.15B25,2013-11-26 09:12:00,
2013-11-26 04:17:00,27.6,17.4,30.28,SW,221,1.0,4.0,65,0.00,,,0.00,WeatherCatV1.15B25,2013-11-26 09:17:00,
2013-11-26 04:22:00,27.5,17.7,30.29,SW,219,1.0,3.0,66,0.00,,,0.00,WeatherCatV1.15B25,2013-11-26 09:22:00,
2013-11-26 04:27:00,27.4,17.9,30.30,WSW,248,3.0,4.0,67,0.00,,,0.00,WeatherCatV1.15B25,2013-11-26 09:27:00,
2013-11-26 04:32:00,27.3,17.5,30.31,WSW,252,0.0,4.0,66,0.00,,,0.00,WeatherCatV1.15B25,2013-11-26 09:32:00,
2013-11-26 04:37:00,27.3,17.5,30.30,WNW,290,2.0,3.0,66,0.00,,,0.00,WeatherCatV1.15B25,2013-11-26 09:37:00,
2013-11-26 04:42:00,27.3,17.8,30.31,SW,224,0.0,3.0,67,0.00,,,0.00,WeatherCatV1.15B25,2013-11-26 09:42:00,
2013-11-26 04:47:00,27.2,17.7,30.30,NW,317,0.0,0.0,67,0.00,,,0.00,WeatherCatV1.15B25,2013-11-26 09:47:00,
2013-11-26 04:52:00,27.2,17.4,30.31,SW,217,0.0,2.0,66,0.00,,,0.00,WeatherCatV1.15B25,2013-11-26 09:52:00,
2013-11-26 04:57:00,27.3,17.8,30.30,SW,217,0.0,0.0,67,0.00,,,0.00,WeatherCatV1.15B25,2013-11-26 09:57:00,
2013-11-26 05:02:00,27.2,17.7,30.31,SW,217,0.0,0.0,67,0.00,,,0.00,WeatherCatV1.15B25,2013-11-26 10:02:00,
2013-11-26 05:07:00,27.3,17.8,30.30,SW,217,0.0,0.0,67,0.00,,,0.00,WeatherCatV1.15B25,2013-11-26 10:07:00,
2013-11-26 05:12:00,27.3,18.2,30.30,SW,217,0.0,0.0,68,0.00,,,0.00,WeatherCatV1.15B25,2013-11-26 10:12:00,
2013-11-26 05:17:00,27.3,17.8,30.30,SW,217,2.0,3.0,67,0.00,,,0.00,WeatherCatV1.15B25,2013-11-26 10:17:00,
2013-11-26 05:22:00,27.3,17.8,30.31,SW,214,1.0,3.0,67,0.00,,,0.00,WeatherCatV1.15B25,2013-11-26 10:22:00,
2013-11-26 05:27:00,27.2,17.7,30.31,SSW,212,1.0,4.0,67,0.00,,,0.00,WeatherCatV1.15B25,2013-11-26 10:27:00,
2013-11-26 05:32:00,27.2,17.7,30.31,SW,220,2.0,6.0,67,0.00,,,0.00,WeatherCatV1.15B25,2013-11-26 10:32:00,
2013-11-26 05:37:00,27.2,17.7,30.31,SW,221,1.0,5.0,67,0.00,,,0.00,WeatherCatV1.15B25,2013-11-26 10:37:00,
2013-11-26 05:42:00,27.2,18.1,30.31,WSW,240,3.0,6.0,68,0.00,,,0.00,WeatherCatV1.15B25,2013-11-26 10:42:00,
2013-11-26 05:47:00,27.2,17.7,30.31,SSW,213,4.0,8.0,67,0.00,,,0.00,WeatherCatV1.15B25,2013-11-26 10:47:00,
2013-11-26 05:52:00,27.2,17.7,30.30,South,186,0.0,4.0,67,0.00,,,0.00,WeatherCatV1.15B25,2013-11-26 10:52:00,
2013-11-26 05:57:00,27.2,18.1,30.31,South,190,1.0,3.0,68,0.00,,,0.00,WeatherCatV1.15B25,2013-11-26 10:57:00,
2013-11-26 06:02:00,27.1,17.6,30.32,SSW,208,0.0,5.0,67,0.00,,,0.00,WeatherCatV1.15B25,2013-11-26 11:02:00,
2013-11-26 06:07:00,27.2,17.7,30.32,South,182,0.0,3.0,67,0.00,,,0.00,WeatherCatV1.15B25,2013-11-26 11:07:00,
2013-11-26 06:12:00,27.2,17.7,30.32,SW,220,0.0,1.0,67,0.00,,,0.00,WeatherCatV1.15B25,2013-11-26 11:12:00,
2013-11-26 06:17:00,27.2,18.1,30.31,SSE,158,3.0,4.0,68,0.00,,,0.00,WeatherCatV1.15B25,2013-11-26 11:17:00,
2013-11-26 06:22:00,27.2,18.1,30.32,SW,219,3.0,4.0,68,0.00,,,0.00,WeatherCatV1.15B25,2013-11-26 11:22:00,
2013-11-26 06:27:00,27.2,18.1,30.32,SSW,210,1.0,5.0,68,0.00,,,0.00,WeatherCatV1.15B25,2013-11-26 11:27:00,
2013-11-26 06:32:00,27.2,18.4,30.31,SW,225,1.0,4.0,69,0.00,,,0.00,WeatherCatV1.15B25,2013-11-26 11:32:00,
2013-11-26 06:37:00,27.1,18.3,30.30,WSW,243,2.0,4.0,69,0.00,,,0.00,WeatherCatV1.15B25,2013-11-26 11:37:00,
2013-11-26 06:42:00,27.1,18.3,30.31,SW,218,0.0,3.0,69,0.00,,,0.00,WeatherCatV1.15B25,2013-11-26 11:42:00,
2013-11-26 06:47:00,27.1,18.3,30.31,SW,218,3.0,3.0,69,0.00,,,0.00,WeatherCatV1.15B25,2013-11-26 11:47:00,
2013-11-26 06:52:00,27.1,18.3,30.31,SW,218,1.0,3.0,69,0.00,,,0.00,WeatherCatV1.15B25,2013-11-26 11:52:00,
2013-11-26 06:57:00,27.2,18.4,30.31,SW,218,1.0,2.0,69,0.00,,,0.00,WeatherCatV1.15B25,2013-11-26 11:57:00,
2013-11-26 07:02:00,27.2,18.7,30.31,SW,222,1.0,5.0,70,0.00,,,0.00,WeatherCatV1.15B25,2013-11-26 12:02:00,
2013-11-26 07:07:00,27.2,18.4,30.32,SW,218,1.0,3.0,69,0.00,,,0.00,WeatherCatV1.15B25,2013-11-26 12:07:00,
2013-11-26 07:12:00,27.3,18.2,30.32,WSW,237,2.0,2.0,68,0.00,,,0.00,WeatherCatV1.15B25,2013-11-26 12:12:00,
2013-11-26 07:17:00,27.4,18.3,30.32,WSW,238,1.0,3.0,68,0.00,,,0.00,WeatherCatV1.15B25,2013-11-26 12:17:00,
2013-11-26 07:22:00,27.5,18.3,30.32,SW,223,0.0,3.0,68,0.00,,,0.00,WeatherCatV1.15B25,2013-11-26 12:22:00,
2013-11-26 07:27:00,27.5,18.3,30.31,SW,219,0.0,5.0,68,0.00,,,0.00,WeatherCatV1.15B25,2013-11-26 12:27:00,
2013-11-26 07:32:00,27.6,18.8,30.31,SW,219,0.0,2.0,69,0.00,,,0.00,WeatherCatV1.15B25,2013-11-26 12:32:00,
2013-11-26 07:37:00,27.6,19.1,30.31,WSW,242,1.0,3.0,70,0.00,,,0.00,WeatherCatV1.15B25,2013-11-26 12:37:00,
2013-11-26 07:42:00,27.6,19.4,30.31,WSW,250,0.0,6.0,71,0.00,,,0.00,WeatherCatV1.15B25,2013-11-26 12:42:00,
2013-11-26 07:47:00,27.6,19.8,30.31,West,277,0.0,2.0,72,0.00,,,0.00,WeatherCatV1.15B25,2013-11-26 12:47:00,
2013-11-26 07:52:00,27.6,19.8,30.32,West,267,0.0,2.0,72,0.00,,,0.00,WeatherCatV1.15B25,2013-11-26 12:52:00,
2013-11-26 07:57:00,27.8,20.0,30.32,SW,225,2.0,4.0,72,0.00,,,0.00,WeatherCatV1.15B25,2013-11-26 12:57:00,
2013-11-26 08:02:00,27.8,20.0,30.32,SW,225,3.0,3.0,72,0.00,,,0.00,WeatherCatV1.15B25,2013-11-26 13:02:00,
2013-11-26 08:07:00,27.9,19.7,30.32,SW,225,0.0,4.0,71,0.00,,,0.00,WeatherCatV1.15B25,2013-11-26 13:07:00,
2013-11-26 08:12:00,27.9,20.4,30.32,WNW,296,3.0,3.0,73,0.00,,,0.00,WeatherCatV1.15B25,2013-11-26 13:12:00,
2013-11-26 08:17:00,28.0,20.8,30.32,SSE,163,0.0,2.0,74,0.00,,,0.00,WeatherCatV1.15B25,2013-11-26 13:17:00,
2013-11-26 08:22:00,28.1,20.9,30.33,WNW,288,1.0,4.0,74,0.00,,,0.00,WeatherCatV1.15B25,2013-11-26 13:22:00,
2013-11-26 08:27:00,28.1,20.9,30.34,WNW,294,0.0,1.0,74,0.00,,,0.00,WeatherCatV1.15B25,2013-11-26 13:27:00,
2013-11-26 08:32:00,28.2,21.0,30.34,West,270,0.0,1.0,74,0.00,,,0.00,WeatherCatV1.15B25,2013-11-26 13:32:00,
2013-11-26 08:37:00,28.2,21.0,30.33,West,265,2.0,4.0,74,0.00,,,0.00,WeatherCatV1.15B25,2013-11-26 13:37:00,
2013-11-26 08:42:00,28.3,21.1,30.33,West,263,0.0,0.0,74,0.00,,,0.00,WeatherCatV1.15B25,2013-11-26 13:42:00,
2013-11-26 08:47:00,28.4,21.2,30.33,West,263,0.0,0.0,74,0.00,,,0.00,WeatherCatV1.15B25,2013-11-26 13:47:00,
2013-11-26 08:52:00,28.5,21.3,30.33,West,263,0.0,0.0,74,0.00,,,0.00,WeatherCatV1.15B25,2013-11-26 13:52:00,
2013-11-26 08:57:00,28.5,21.0,30.33,West,263,0.0,2.0,73,0.00,,,0.00,WeatherCatV1.15B25,2013-11-26 13:57:00,
2013-11-26 09:02:00,28.6,20.7,30.33,West,263,0.0,0.0,72,0.00,,,0.00,WeatherCatV1.15B25,2013-11-26 14:02:00,
2013-11-26 09:07:00,28.7,20.5,30.33,West,263,0.0,1.0,71,0.00,,,0.00,WeatherCatV1.15B25,2013-11-26 14:07:00,
2013-11-26 09:12:00,28.7,20.8,30.33,West,263,0.0,0.0,72,0.00,,,0.00,WeatherCatV1.15B25,2013-11-26 14:12:00,
2013-11-26 09:17:00,28.8,21.6,30.32,West,263,0.0,0.0,74,0.00,,,0.00,WeatherCatV1.15B25,2013-11-26 14:17:00,
2013-11-26 09:22:00,29.0,21.8,30.32,West,263,0.0,1.0,74,0.00,,,0.00,WeatherCatV1.15B25,2013-11-26 14:22:00,
2013-11-26 09:27:00,29.2,22.0,30.32,West,263,0.0,0.0,74,0.00,,,0.00,WeatherCatV1.15B25,2013-11-26 14:27:00,
2013-11-26 09:32:00,29.3,22.1,30.32,West,263,0.0,0.0,74,0.00,,,0.00,WeatherCatV1.15B25,2013-11-26 14:32:00,
2013-11-26 09:37:00,29.4,22.2,30.32,West,263,0.0,0.0,74,0.00,,,0.00,WeatherCatV1.15B25,2013-11-26 14:37:00,
2013-11-26 09:42:00,29.6,22.3,30.32,West,263,0.0,0.0,74,0.00,,,0.00,WeatherCatV1.15B25,2013-11-26 14:42:00,
2013-11-26 09:47:00,29.8,22.5,30.32,West,263,0.0,0.0,74,0.00,,,0.00,WeatherCatV1.15B25,2013-11-26 14:47:00,
2013-11-26 09:52:00,30.1,22.8,30.32,West,263,0.0,1.0,74,0.00,,,0.00,WeatherCatV1.15B25,2013-11-26 14:52:00,
2013-11-26 09:57:00,30.3,23.0,30.32,West,263,0.0,2.0,74,0.00,,,0.00,WeatherCatV1.15B25,2013-11-26 14:57:00,
2013-11-26 10:02:00,30.5,22.9,30.32,West,263,0.0,1.0,73,0.00,,,0.00,WeatherCatV1.15B25,2013-11-26 15:02:00,
2013-11-26 10:07:00,30.6,23.0,30.32,SSW,213,0.0,0.0,73,0.00,,,0.00,WeatherCatV1.15B25,2013-11-26 15:07:00,
2013-11-26 10:12:00,30.7,23.4,30.32,West,278,2.0,3.0,74,0.00,,,0.00,WeatherCatV1.15B25,2013-11-26 15:12:00,
2013-11-26 10:17:00,30.9,23.9,30.32,SSW,204,0.0,1.0,75,0.00,,,0.00,WeatherCatV1.15B25,2013-11-26 15:17:00,
2013-11-26 10:22:00,31.0,24.0,30.32,SSW,204,0.0,0.0,75,0.00,,,0.00,WeatherCatV1.15B25,2013-11-26 15:22:00,
2013-11-26 10:27:00,31.3,23.7,30.32,SSW,203,0.0,2.0,73,0.00,,,0.00,WeatherCatV1.15B25,2013-11-26 15:27:00,
2013-11-26 10:32:00,31.5,23.9,30.31,SSW,203,0.0,0.0,73,0.00,,,0.00,WeatherCatV1.15B25,2013-11-26 15:32:00,
2013-11-26 10:37:00,31.7,24.4,30.31,SSW,204,0.0,1.0,74,0.00,,,0.00,WeatherCatV1.15B25,2013-11-26 15:37:00,
2013-11-26 10:42:00,31.9,24.6,30.31,SSW,203,0.0,0.0,74,0.00,,,0.00,WeatherCatV1.15B25,2013-11-26 15:42:00,
2013-11-26 10:47:00,31.9,24.6,30.31,SSW,207,0.0,1.0,74,0.00,,,0.00,WeatherCatV1.15B25,2013-11-26 15:47:00,
2013-11-26 10:52:00,31.9,24.6,30.30,SSW,207,0.0,3.0,74,0.00,,,0.00,WeatherCatV1.15B25,2013-11-26 15:52:00,
2013-11-26 10:57:00,31.7,25.0,30.30,SSW,207,0.0,0.0,76,0.00,,,0.00,WeatherCatV1.15B25,2013-11-26 15:57:00,
2013-11-26 11:02:00,31.9,24.9,30.30,SSW,207,0.0,2.0,75,0.00,,,0.00,WeatherCatV1.15B25,2013-11-26 16:02:00,
2013-11-26 11:07:00,31.9,24.9,30.30,SSW,206,1.0,1.0,75,0.00,,,0.00,WeatherCatV1.15B25,2013-11-26 16:07:00,
2013-11-26 11:12:00,32.1,25.4,30.29,SSW,206,0.0,0.0,76,0.00,,,0.00,WeatherCatV1.15B25,2013-11-26 16:12:00,
2013-11-26 11:17:00,32.4,25.7,30.29,SSW,207,0.0,0.0,76,0.00,,,0.00,WeatherCatV1.15B25,2013-11-26 16:17:00,
2013-11-26 11:22:00,32.8,26.1,30.29,SSW,207,0.0,0.0,76,0.00,,,0.00,WeatherCatV1.15B25,2013-11-26 16:22:00,
2013-11-26 11:27:00,33.2,26.5,30.29,SSW,207,0.0,2.0,76,0.00,,,0.00,WeatherCatV1.15B25,2013-11-26 16:27:00,
2013-11-26 11:32:00,33.4,26.3,30.29,SSW,207,0.0,0.0,75,0.00,,,0.00,WeatherCatV1.15B25,2013-11-26 16:32:00,
2013-11-26 11:37:00,33.5,26.1,30.28,SSW,207,0.0,1.0,74,0.00,,,0.00,WeatherCatV1.15B25,2013-11-26 16:37:00,
2013-11-26 11:42:00,33.5,26.1,30.28,SSW,206,0.0,2.0,74,0.00,,,0.00,WeatherCatV1.15B25,2013-11-26 16:42:00,
2013-11-26 11:47:00,33.4,26.3,30.29,SSW,207,0.0,0.0,75,0.00,,,0.00,WeatherCatV1.15B25,2013-11-26 16:47:00,
2013-11-26 11:52:00,33.4,26.3,30.29,SSW,206,0.0,0.0,75,0.00,,,0.00,WeatherCatV1.15B25,2013-11-26 16:52:00,
2013-11-26 11:57:00,33.4,26.3,30.29,SSW,207,0.0,0.0,75,0.00,,,0.00,WeatherCatV1.15B25,2013-11-26 16:57:00,
2013-11-26 12:02:00,33.4,26.3,30.29,SSW,206,0.0,0.0,75,0.00,,,0.00,WeatherCatV1.15B25,2013-11-26 17:02:00,
2013-11-26 12:07:00,33.5,26.4,30.29,SSW,207,0.0,1.0,75,0.00,,,0.00,WeatherCatV1.15B25,2013-11-26 17:07:00,
2013-11-26 12:12:00,33.4,26.0,30.29,WSW,246,0.0,2.0,74,0.00,,,0.00,WeatherCatV1.15B25,2013-11-26 17:12:00,
2013-11-26 12:17:00,33.2,25.5,30.29,WSW,245,0.0,3.0,73,0.00,,,0.00,WeatherCatV1.15B25,2013-11-26 17:17:00,
2013-11-26 12:22:00,32.9,24.9,30.29,SSE,159,0.0,1.0,72,0.00,,,0.00,WeatherCatV1.15B25,2013-11-26 17:22:00,
2013-11-26 12:27:00,32.8,24.8,30.29,SW,220,0.0,4.0,72,0.00,,,0.00,WeatherCatV1.15B25,2013-11-26 17:27:00,
2013-11-26 12:32:00,32.7,25.0,30.29,SSE,163,0.0,1.0,73,0.00,,,0.00,WeatherCatV1.15B25,2013-11-26 17:32:00,
2013-11-26 12:37:00,32.6,24.6,30.28,SSW,207,0.0,4.0,72,0.00,,,0.00,WeatherCatV1.15B25,2013-11-26 17:37:00,
2013-11-26 12:42:00,32.5,24.5,30.28,SE,142,0.0,0.0,72,0.00,,,0.00,WeatherCatV1.15B25,2013-11-26 17:42:00,
2013-11-26 12:47:00,32.4,24.4,30.28,SE,142,2.0,2.0,72,0.00,,,0.00,WeatherCatV1.15B25,2013-11-26 17:47:00,
2013-11-26 12:52:00,32.3,24.3,30.28,SE,140,0.0,1.0,72,0.00,,,0.00,WeatherCatV1.15B25,2013-11-26 17:52:00,
2013-11-26 12:57:00,32.2,24.5,30.27,WSW,237,1.0,2.0,73,0.00,,,0.00,WeatherCatV1.15B25,2013-11-26 17:57:00,
2013-11-26 13:02:00,32.1,24.4,30.27,South,179,0.0,0.0,73,0.00,,,0.00,WeatherCatV1.15B25,2013-11-26 18:02:00,
2013-11-26 13:07:00,32.2,24.5,30.27,South,179,0.0,1.0,73,0.00,,,0.00,WeatherCatV1.15B25,2013-11-26 18:07:00,
2013-11-26 13:12:00,32.1,24.4,30.26,SSE,150,2.0,2.0,73,0.00,,,0.00,WeatherCatV1.15B25,2013-11-26 18:12:00,
2013-11-26 13:17:00,32.0,25.0,30.26,ESE,109,2.0,5.0,75,0.00,,,0.00,WeatherCatV1.15B25,2013-11-26 18:17:00,
2013-11-26 13:22:00,31.9,25.2,30.26,SSE,153,1.0,2.0,76,0.00,,,0.00,WeatherCatV1.15B25,2013-11-26 18:22:00,
2013-11-26 13:27:00,31.8,25.4,30.25,SSE,153,0.0,1.0,77,0.00,,,0.00,WeatherCatV1.15B25,2013-11-26 18:27:00,
2013-11-26 13:32:00,31.8,25.4,30.25,SSE,148,3.0,3.0,77,0.00,,,0.00,WeatherCatV1.15B25,2013-11-26 18:32:00,
2013-11-26 13:37:00,31.7,25.3,30.25,SSE,148,0.0,3.0,77,0.00,,,0.00,WeatherCatV1.15B25,2013-11-26 18:37:00,
2013-11-26 13:42:00,31.7,25.9,30.25,SSE,148,0.0,2.0,79,0.00,,,0.00,WeatherCatV1.15B25,2013-11-26 18:42:00,
2013-11-26 13:47:00,31.7,25.6,30.25,SSE,148,0.0,0.0,78,0.00,,,0.00,WeatherCatV1.15B25,2013-11-26 18:47:00,
2013-11-26 13:52:00,31.8,26.0,30.25,SSE,148,0.0,0.0,79,0.00,,,0.00,WeatherCatV1.15B25,2013-11-26 18:52:00,
2013-11-26 13:57:00,31.9,25.8,30.25,SSE,148,0.0,2.0,78,0.00,,,0.00,WeatherCatV1.15B25,2013-11-26 18:57:00,
2013-11-26 14:02:00,31.9,25.5,30.25,South,169,0.0,4.0,77,0.00,,,0.00,WeatherCatV1.15B25,2013-11-26 19:02:00,
2013-11-26 14:07:00,31.9,25.8,30.25,SSE,167,3.0,3.0,78,0.00,,,0.00,WeatherCatV1.15B25,2013-11-26 19:07:00,
2013-11-26 14:12:00,31.9,25.8,30.25,SSW,196,0.0,4.0,78,0.00,,,0.00,WeatherCatV1.15B25,2013-11-26 19:12:00,
2013-11-26 14:17:00,31.8,26.0,30.24,SSE,149,4.0,4.0,79,0.00,,,0.00,WeatherCatV1.15B25,2013-11-26 19:17:00,
2013-11-26 14:22:00,31.6,26.5,30.23,SE,132,1.0,6.0,81,0.00,,,0.00,WeatherCatV1.15B25,2013-11-26 19:22:00,
2013-11-26 14:27:00,31.4,26.8,30.23,South,169,3.0,3.0,83,0.00,,,0.00,WeatherCatV1.15B25,2013-11-26 19:27:00,
2013-11-26 14:32:00,31.2,26.9,30.24,SSE,158,2.0,6.0,84,0.00,,,0.00,WeatherCatV1.15B25,2013-11-26 19:32:00,
2013-11-26 14:37:00,31.0,27.0,30.23,SE,125,0.0,7.0,85,0.00,,,0.00,WeatherCatV1.15B25,2013-11-26 19:37:00,
2013-11-26 14:42:00,30.8,27.1,30.23,SE,131,1.0,3.0,86,0.00,,,0.00,WeatherCatV1.15B25,2013-11-26 19:42:00,
2013-11-26 14:47:00,30.7,27.3,30.23,SE,126,1.0,4.0,87,0.00,,,0.00,WeatherCatV1.15B25,2013-11-26 19:47:00,
2013-11-26 14:52:00,30.7,27.3,30.23,SSE,149,2.0,4.0,87,0.00,,,0.00,WeatherCatV1.15B25,2013-11-26 19:52:00,
2013-11-26 14:57:00,30.6,27.2,30.23,SE,144,2.0,6.0,87,0.00,,,0.00,WeatherCatV1.15B25,2013-11-26 19:57:00,
2013-11-26 15:02:00,30.5,27.1,30.23,SE,143,2.0,5.0,87,0.00,,,0.00,WeatherCatV1.15B25,2013-11-26 20:02:00,
2013-11-26 15:07:00,30.5,27.4,30.23,SE,146,4.0,4.0,88,0.00,,,0.00,WeatherCatV1.15B25,2013-11-26 20:07:00,
2013-11-26 15:12:00,30.6,27.8,30.23,SE,133,3.0,3.0,89,0.00,,,0.00,WeatherCatV1.15B25,2013-11-26 20:12:00,
2013-11-26 15:17:00,30.6,27.8,30.23,SE,144,1.0,2.0,89,0.00,,,0.00,WeatherCatV1.15B25,2013-11-26 20:17:00,
2013-11-26 15:22:00,30.6,28.0,30.22,ESE,123,3.0,6.0,90,0.00,,,0.00,WeatherCatV1.15B25,2013-11-26 20:22:00,
2013-11-26 15:27:00,30.6,28.0,30.22,SE,141,1.0,5.0,90,0.00,,,0.00,WeatherCatV1.15B25,2013-11-26 20:27:00,
2013-11-26 15:32:00,30.5,27.9,30.21,SE,133,2.0,6.0,90,0.00,,,0.00,WeatherCatV1.15B25,2013-11-26 20:32:00,
2013-11-26 15:37:00,30.5,28.2,30.21,SE,136,2.0,5.0,91,0.00,,,0.00,WeatherCatV1.15B25,2013-11-26 20:37:00,
2013-11-26 15:42:00,30.5,28.2,30.20,ESE,110,3.0,6.0,91,0.00,,,0.00,WeatherCatV1.15B25,2013-11-26 20:42:00,
2013-11-26 15:47:00,30.5,28.5,30.20,SE,128,1.0,4.0,92,0.00,,,0.00,WeatherCatV1.15B25,2013-11-26 20:47:00,
2013-11-26 15:52:00,30.5,28.5,30.20,ESE,121,2.0,3.0,92,0.00,,,0.00,WeatherCatV1.15B25,2013-11-26 20:52:00,
2013-11-26 15:57:00,30.5,28.5,30.20,ESE,118,2.0,4.0,92,0.00,,,0.00,WeatherCatV1.15B25,2013-11-26 20:57:00,
2013-11-26 16:02:00,30.4,28.4,30.20,SE,137,3.0,5.0,92,0.00,,,0.00,WeatherCatV1.15B25,2013-11-26 21:02:00,
2013-11-26 16:07:00,30.5,28.5,30.20,SE,140,2.0,4.0,92,0.00,,,0.00,WeatherCatV1.15B25,2013-11-26 21:07:00,
2013-11-26 16:12:00,30.5,28.5,30.20,SSE,157,4.0,5.0,92,0.00,,,0.00,WeatherCatV1.15B25,2013-11-26 21:12:00,
2013-11-26 16:17:00,30.5,28.5,30.20,ESE,114,3.0,7.0,92,0.00,,,0.00,WeatherCatV1.15B25,2013-11-26 21:17:00,
2013-11-26 16:22:00,30.5,28.7,30.19,SE,137,7.0,7.0,93,0.00,,,0.00,WeatherCatV1.15B25,2013-11-26 21:22:00,
2013-11-26 16:27:00,30.5,28.7,30.20,SE,137,4.0,6.0,93,0.00,,,0.00,WeatherCatV1.15B25,2013-11-26 21:27:00,
2013-11-26 16:32:00,30.5,28.7,30.20,SSE,148,1.0,4.0,93,0.00,,,0.00,WeatherCatV1.15B25,2013-11-26 21:32:00,
2013-11-26 16:37:00,30.5,28.7,30.19,SE,140,5.0,5.0,93,0.00,,,0.00,WeatherCatV1.15B25,2013-11-26 21:37:00,
2013-11-26 16:42:00,30.5,28.7,30.19,SE,130,2.0,4.0,93,0.00,,,0.00,WeatherCatV1.15B25,2013-11-26 21:42:00,
2013-11-26 16:47:00,30.5,28.7,30.19,SE,140,4.0,5.0,93,0.00,,,0.00,WeatherCatV1.15B25,2013-11-26 21:47:00,
2013-11-26 16:52:00,30.5,28.7,30.19,South,173,4.0,6.0,93,0.00,,,0.00,WeatherCatV1.15B25,2013-11-26 21:52:00,
2013-11-26 16:57:00,30.5,28.7,30.19,SE,140,2.0,7.0,93,0.00,,,0.00,WeatherCatV1.15B25,2013-11-26 21:57:00,
2013-11-26 17:02:00,30.5,29.0,30.19,SE,129,3.0,10.0,94,0.00,,,0.00,WeatherCatV1.15B25,2013-11-26 22:02:00,
2013-11-26 17:07:00,30.5,29.0,30.18,SE,132,3.0,5.0,94,0.00,,,0.00,WeatherCatV1.15B25,2013-11-26 22:07:00,
2013-11-26 17:12:00,30.5,29.0,30.18,SSE,154,2.0,4.0,94,0.00,,,0.00,WeatherCatV1.15B25,2013-11-26 22:12:00,
2013-11-26 17:17:00,30.6,29.1,30.18,ESE,122,1.0,6.0,94,0.00,,,0.00,WeatherCatV1.15B25,2013-11-26 22:17:00,
2013-11-26 17:22:00,30.6,29.1,30.18,SE,140,3.0,6.0,94,0.00,,,0.00,WeatherCatV1.15B25,2013-11-26 22:22:00,
2013-11-26 17:27:00,30.6,29.1,30.18,SE,138,4.0,11.0,94,0.00,,,0.00,WeatherCatV1.15B25,2013-11-26 22:27:00,
2013-11-26 17:32:00,30.6,29.1,30.18,SE,146,3.0,4.0,94,0.00,,,0.00,WeatherCatV1.15B25,2013-11-26 22:32:00,
2013-11-26 17:37:00,30.5,29.2,30.18,SE,133,2.0,6.0,95,0.00,,,0.00,WeatherCatV1.15B25,2013-11-26 22:37:00,
2013-11-26 17:42:00,30.6,29.3,30.18,SE,133,5.0,5.0,95,0.00,,,0.00,WeatherCatV1.15B25,2013-11-26 22:42:00,
2013-11-26 17:47:00,30.6,29.3,30.17,ESE,113,6.0,6.0,95,0.00,,,0.00,WeatherCatV1.15B25,2013-11-26 22:47:00,
2013-11-26 17:52:00,30.6,29.3,30.17,ESE,123,4.0,8.0,95,0.00,,,0.00,WeatherCatV1.15B25,2013-11-26 22:52:00,
2013-11-26 17:57:00,30.6,29.3,30.16,SE,139,6.0,10.0,95,0.00,,,0.00,WeatherCatV1.15B25,2013-11-26 22:57:00,
2013-11-26 18:02:00,30.6,29.3,30.16,ESE,118,5.0,10.0,95,0.00,,,0.00,WeatherCatV1.15B25,2013-11-26 23:02:00,
2013-11-26 18:07:00,30.6,29.3,30.16,SE,144,5.0,13.0,95,0.00,,,0.00,WeatherCatV1.15B25,2013-11-26 23:07:00,
2013-11-26 18:12:00,30.7,29.7,30.16,SSE,149,7.0,9.0,96,0.00,,,0.00,WeatherCatV1.15B25,2013-11-26 23:12:00,
2013-11-26 18:17:00,30.7,29.7,30.16,East,92,5.0,9.0,96,0.00,,,0.00,WeatherCatV1.15B25,2013-11-26 23:17:00,
2013-11-26 18:22:00,30.8,29.8,30.16,SSE,162,3.0,6.0,96,0.00,,,0.00,WeatherCatV1.15B25,2013-11-26 23:22:00,
2013-11-26 18:27:00,30.9,29.9,30.17,SE,134,5.0,6.0,96,0.00,,,0.00,WeatherCatV1.15B25,2013-11-26 23:27:00,
2013-11-26 18:32:00,31.0,30.0,30.17,South,169,3.0,5.0,96,0.00,,,0.00,WeatherCatV1.15B25,2013-11-26 23:32:00,
2013-11-26 18:37:00,31.0,30.0,30.17,SE,140,4.0,6.0,96,0.00,,,0.00,WeatherCatV1.15B25,2013-11-26 23:37:00,
2013-11-26 18:42:00,31.1,30.1,30.17,SSE,153,4.0,6.0,96,0.00,,,0.00,WeatherCatV1.15B25,2013-11-26 23:42:00,
2013-11-26 18:47:00,31.2,30.2,30.17,SSE,148,3.0,4.0,96,0.00,,,0.00,WeatherCatV1.15B25,2013-11-26 23:47:00,
2013-11-26 18:52:00,31.2,30.5,30.17,SE,138,6.0,6.0,97,0.00,,,0.00,WeatherCatV1.15B25,2013-11-26 23:52:00,
2013-11-26 18:57:00,31.4,30.6,30.16,ESE,123,5.0,7.0,97,0.00,,,0.00,WeatherCatV1.15B25,2013-11-26 23:57:00,
2013-11-26 19:02:00,31.4,30.6,30.16,SE,142,6.0,7.0,97,0.00,,,0.00,WeatherCatV1.15B25,2013-11-27 00:02:00,
2013-11-26 19:07:00,31.4,30.6,30.16,SE,133,4.0,5.0,97,0.00,,,0.00,WeatherCatV1.15B25,2013-11-27 00:07:00,
2013-11-26 19:12:00,31.5,30.7,30.16,SSE,147,3.0,6.0,97,0.00,,,0.00,WeatherCatV1.15B25,2013-11-27 00:12:00,
2013-11-26 19:17:00,31.6,30.8,30.15,SE,132,4.0,5.0,97,0.00,,,0.00,WeatherCatV1.15B25,2013-11-27 00:17:00,
2013-11-26 19:22:00,31.6,30.8,30.15,SE,129,4.0,6.0,97,0.00,,,0.00,WeatherCatV1.15B25,2013-11-27 00:22:00,
2013-11-26 19:27:00,31.7,30.9,30.14,SE,128,3.0,4.0,97,0.00,,,0.00,WeatherCatV1.15B25,2013-11-27 00:27:00,
2013-11-26 19:32:00,31.7,30.9,30.14,SSE,155,4.0,6.0,97,0.00,,,0.00,WeatherCatV1.15B25,2013-11-27 00:32:00,
2013-11-26 19:37:00,31.8,31.0,30.13,SE,143,3.0,5.0,97,0.00,,,0.00,WeatherCatV1.15B25,2013-11-27 00:37:00,
2013-11-26 19:42:00,31.8,31.0,30.13,ESE,116,3.0,5.0,97,0.00,,,0.00,WeatherCatV1.15B25,2013-11-27 00:42:00,
2013-11-26 19:47:00,31.9,31.1,30.13,ESE,122,4.0,5.0,97,0.00,,,0.00,WeatherCatV1.15B25,2013-11-27 00:47:00,
2013-11-26 19:52:00,31.9,31.1,30.12,SE,138,4.0,7.0,97,0.00,,,0.00,WeatherCatV1.15B25,2013-11-27 00:52:00,
2013-11-26 19:57:00,31.9,31.1,30.12,ESE,118,3.0,7.0,97,0.00,,,0.00,WeatherCatV1.15B25,2013-11-27 00:57:00,
2013-11-26 20:02:00,32.0,31.5,30.11,SE,132,3.0,6.0,98,0.00,,,0.00,WeatherCatV1.15B25,2013-11-27 01:02:00,
2013-11-26 20:07:00,32.1,31.6,30.11,SSE,157,3.0,10.0,98,0.00,,,0.00,WeatherCatV1.15B25,2013-11-27 01:07:00,
2013-11-26 20:12:00,32.2,31.4,30.11,ESE,109,5.0,7.0,97,0.00,,,0.00,WeatherCatV1.15B25,2013-11-27 01:12:00,
2013-11-26 20:17:00,32.2,31.7,30.10,ESE,121,3.0,5.0,98,0.00,,,0.00,WeatherCatV1.15B25,2013-11-27 01:17:00,
2013-11-26 20:22:00,32.3,31.8,30.10,SSE,148,4.0,4.0,98,0.00,,,0.00,WeatherCatV1.15B25,2013-11-27 01:22:00,
2013-11-26 20:27:00,32.3,31.8,30.10,East,94,3.0,9.0,98,0.00,,,0.00,WeatherCatV1.15B25,2013-11-27 01:27:00,
2013-11-26 20:32:00,32.4,31.9,30.09,ESE,116,4.0,7.0,98,0.00,,,0.00,WeatherCatV1.15B25,2013-11-27 01:32:00,
2013-11-26 20:37:00,32.5,32.0,30.09,SE,139,2.0,7.0,98,0.00,,,0.00,WeatherCatV1.15B25,2013-11-27 01:37:00,
2013-11-26 20:42:00,32.5,32.0,30.08,SSE,160,4.0,5.0,98,0.00,,,0.00,WeatherCatV1.15B25,2013-11-27 01:42:00,
2013-11-26 20:47:00,32.6,32.1,30.08,SE,133,4.0,5.0,98,0.00,,,0.00,WeatherCatV1.15B25,2013-11-27 01:47:00,
2013-11-26 20:52:00,32.6,32.1,30.07,South,178,8.0,10.0,98,0.00,,,0.00,WeatherCatV1.15B25,2013-11-27 01:52:00,
2013-11-26 20:57:00,32.7,32.2,30.07,SE,128,6.0,9.0,98,0.00,,,0.00,WeatherCatV1.15B25,2013-11-27 01:57:00,
2013-11-26 21:02:00,32.7,32.2,30.07,ESE,118,4.0,5.0,98,0.00,,,0.00,WeatherCatV1.15B25,2013-11-27 02:02:00,
2013-11-26 21:07:00,32.8,32.3,30.06,SE,132,6.0,7.0,98,0.00,,,0.00,WeatherCatV1.15B25,2013-11-27 02:07:00,
2013-11-26 21:12:00,32.9,32.4,30.06,SE,145,6.0,9.0,98,0.00,,,0.00,WeatherCatV1.15B25,2013-11-27 02:12:00,
2013-11-26 21:17:00,32.9,32.4,30.05,ESE,110,4.0,9.0,98,0.00,,,0.00,WeatherCatV1.15B25,2013-11-27 02:17:00,
2013-11-26 21:22:00,32.9,32.4,30.05,SE,132,9.0,9.0,98,0.00,,,0.00,WeatherCatV1.15B25,2013-11-27 02:22:00,
2013-11-26 21:27:00,33.1,32.6,30.04,ESE,118,3.0,7.0,98,0.00,,,0.00,WeatherCatV1.15B25,2013-11-27 02:27:00,
2013-11-26 21:32:00,33.2,32.7,30.04,SE,128,6.0,8.0,98,0.00,,,0.00,WeatherCatV1.15B25,2013-11-27 02:32:00,
2013-11-26 21:37:00,33.3,32.8,30.03,ESE,114,6.0,11.0,98,0.00,,,0.00,WeatherCatV1.15B25,2013-11-27 02:37:00,
2013-11-26 21:42:00,33.4,32.9,30.02,SE,131,5.0,11.0,98,0.00,,,0.00,WeatherCatV1.15B25,2013-11-27 02:42:00,
2013-11-26 21:47:00,33.5,33.0,30.02,East,87,4.0,9.0,98,0.00,,,0.00,WeatherCatV1.15B25,2013-11-27 02:47:00,
2013-11-26 21:52:00,33.7,33.2,30.01,SE,130,6.0,8.0,98,0.00,,,0.00,WeatherCatV1.15B25,2013-11-27 02:52:00,
2013-11-26 21:57:00,33.8,33.3,30.00,ESE,109,5.0,9.0,98,0.00,,,0.00,WeatherCatV1.15B25,2013-11-27 02:57:00,
2013-11-26 22:02:00,33.9,33.4,30.00,ESE,105,10.0,10.0,98,0.00,,,0.00,WeatherCatV1.15B25,2013-11-27 03:02:00,
2013-11-26 22:07:00,34.2,33.9,30.00,SE,130,20.0,20.0,99,0.00,,,0.00,WeatherCatV1.15B25,2013-11-27 03:07:00,
2013-11-26 22:12:00,34.3,34.0,30.00,ESE,102,6.0,9.0,99,0.00,,,0.00,WeatherCatV1.15B25,2013-11-27 03:12:00,
2013-11-26 22:17:00,34.4,33.9,29.99,SE,126,4.0,12.0,98,0.00,,,0.00,WeatherCatV1.15B25,2013-11-27 03:17:00,
2013-11-26 22:22:00,34.4,33.9,29.98,SE,127,9.0,14.0,98,0.00,,,0.00,WeatherCatV1.15B25,2013-11-27 03:22:00,
2013-11-26 22:27:00,34.7,34.4,29.98,East,98,6.0,11.0,99,0.00,,,0.00,WeatherCatV1.15B25,2013-11-27 03:27:00,
2013-11-26 22:32:00,35.0,34.7,29.98,ESE,118,7.0,14.0,99,0.00,,,0.00,WeatherCatV1.15B25,2013-11-27 03:32:00,
2013-11-26 22:37:00,35.2,34.9,29.97,SE,137,8.0,13.0,99,0.00,,,0.00,WeatherCatV1.15B25,2013-11-27 03:37:00,
2013-11-26 22:42:00,35.3,35.0,29.97,ESE,121,9.0,15.0,99,0.00,,,0.00,WeatherCatV1.15B25,2013-11-27 03:42:00,
2013-11-26 22:47:00,35.5,35.2,29.96,SSE,148,7.0,13.0,99,0.00,,,0.00,WeatherCatV1.15B25,2013-11-27 03:47:00,
2013-11-26 22:52:00,35.9,35.6,29.95,SE,133,9.0,12.0,99,0.00,,,0.00,WeatherCatV1.15B25,2013-11-27 03:52:00,
2013-11-26 22:57:00,36.0,35.7,29.93,SE,130,10.0,11.0,99,0.00,,,0.00,WeatherCatV1.15B25,2013-11-27 03:57:00,
2013-11-26 23:02:00,36.2,35.9,29.92,ESE,104,9.0,17.0,99,0.00,,,0.00,WeatherCatV1.15B25,2013-11-27 04:02:00,
2013-11-26 23:07:00,36.6,36.3,29.91,ESE,110,12.0,14.0,99,0.00,,,0.00,WeatherCatV1.15B25,2013-11-27 04:07:00,
2013-11-26 23:12:00,37.0,36.7,29.92,ESE,109,9.0,15.0,99,0.00,,,0.00,WeatherCatV1.15B25,2013-11-27 04:12:00,
2013-11-26 23:17:00,37.2,36.9,29.93,SE,128,11.0,11.0,99,0.00,,,0.00,WeatherCatV1.15B25,2013-11-27 04:17:00,
2013-11-26 23:22:00,37.6,37.3,29.91,SE,129,12.0,15.0,99,0.00,,,0.00,WeatherCatV1.15B25,2013-11-27 04:22:00,
2013-11-26 23:27:00,37.8,37.5,29.91,ESE,109,9.0,14.0,99,0.00,,,0.00,WeatherCatV1.15B25,2013-11-27 04:27:00,
2013-11-26 23:32:00,38.0,37.7,29.90,ESE,102,8.0,12.0,99,0.00,,,0.00,WeatherCatV1.15B25,2013-11-27 04:32:00,
2013-11-26 23:37:00,38.1,37.8,29.89,SE,135,11.0,14.0,99,0.00,,,0.00,WeatherCatV1.15B25,2013-11-27 04:37:00,
2013-11-26 23:42:00,38.4,38.1,29.89,ESE,117,10.0,14.0,99,0.00,,,0.00,WeatherCatV1.15B25,2013-11-27 04:42:00,
2013-11-26 23:47:00,38.6,38.3,29.87,ESE,120,9.0,13.0,99,0.00,,,0.00,WeatherCatV1.15B25,2013-11-27 04:47:00,
2013-11-26 23:52:00,38.8,38.5,29.87,SE,132,13.0,13.0,99,0.00,,,0.00,WeatherCatV1.15B25,2013-11-27 04:52:00,
2013-11-26 23:57:00,39.2,38.9,29.85,ESE,113,11.0,15.0,99,0.00,,,0.00,WeatherCatV1.15B25,2013-11-27 04:57:00,